Regional Weather Roundup
Issued by NWS

Home | Current Version | Previous Version | Graphics & Text | Print | Product List | Glossary On
Versions: 1 2 3 4 5 6 7 8 9 10 11 12 13 14 15 16 17 18 19 20 21 22 23 24 25 26 27 28 29 30 31 32 33 34 35 36 37 38 39 40 41 42 43 44 45 46 47 48 49 50
000
ASUS45 KBOU 282207
RWRCO

WEATHER ROUNDUP FOR COLORADO
NATIONAL WEATHER SERVICE DENVER/BOULDER CO
400 PM MDT THU MAY 28 2015

NOTE: "FAIR" INDICATES FEW OR NO CLOUDS BELOW 12000 FEET WITH NO
SIGNIFICANT WEATHER AND/OR OBSTRUCTIONS TO VISIBILITY.

COZ001>005-013-030-031-282300-
...NORTHWEST COLORADO...

CITY           SKY/WX    TMP DP  RH WIND       PRES   REMARKS
CRAIG          CLOUDY    61  40  45 NW16G24   30.14R
HAYDEN         CLOUDY    57  36  44 NW13G18   30.14R THUNDER
MEEKER         CLOUDY    49  41  74 SW20G30   30.20R
MOUNT WERNER   NOT AVBL
STEAMBOAT SPGS CLOUDY    51  39  63 E15       30.16R
WALDEN         PTSUNNY   54  32  43 NW23G36   30.17R
$$

COZ006>008-011-282300-
...WEST CENTRAL VALLEYS...

CITY           SKY/WX    TMP DP  RH WIND       PRES   REMARKS
GRAND JUNCTION CLOUDY    66  39  37 N20G29    30.09R
MONTROSE       LGT RAIN  61  45  55 N8        30.10R
EAGLE          LGT RAIN  64  39  39 SW15G33   30.11F
RIFLE          CLOUDY    60  38  43 NW28G39   30.13R
DELTA          CLOUDY    73  36  26 SW13      30.06S HAZE
NUCLA          PTSUNNY   70  32  24 SW10G20   30.12F
$$

COZ017>023-064>068-282300-
...SOUTHWEST COLORADO...

CITY           SKY/WX    TMP DP  RH WIND       PRES   REMARKS
DURANGO        MOSUNNY   72  34  24 W17       30.11F
CORTEZ         MOSUNNY   72  36  26 NW14G25   30.09S
PAGOSA SPRINGS PTSUNNY   60  32  35 N8G17     30.19S
TELLURIDE      CLOUDY    53  33  46 SW6G23    30.31R
WOLF CREEK PAS NOT AVBL
$$

COZ009-010-012-014-032>034-037-058>063-282300-
...CENTRAL COLORADO...

CITY           SKY/WX    TMP DP  RH WIND       PRES   REMARKS
ASPEN          PTSUNNY   58  33  39 N12       30.17F
BUENA VISTA    MOSUNNY   67  16  14 W23G35    30.12F
COPPER MTN     MOSUNNY   45  23  42 SW15G21   30.37S
BERTHOUD PASS  FAIR      34  28  80 MISG      30.36F
COTTONWOOD PAS SUNNY     63  10  13 W9G16     30.23F
GUNNISON       MOSUNNY   64  28  25 W12G23    30.17S
KREMMLING      TSTM      52  39  62 SE10      30.16S
LEADVILLE      MOSUNNY   53  23  31 W14G24    30.24S
SALIDA         MOSUNNY   70  18  13 W20G37    30.17S
SUNLIGHT       PTSUNNY   46  36  66 W5        30.35S
WILKERSON PASS MOSUNNY   54  23  30 SW10G23   30.32S
$$

COZ069>075-282300-
...SAN LUIS VALLEY/SANGRE DE CRISTO MOUNTAINS...

CITY           SKY/WX    TMP DP  RH WIND       PRES   REMARKS
ALAMOSA        PTSUNNY   67  25  20 NW18G33   30.11F
LA VETA PASS   PTSUNNY  N/A N/A N/A MISG      30.28S
SAGUACHE       CLOUDY    59  37  44 SE16      30.17S
$$

COZ035-036-038>040-282300-
...NORTHERN COLORADO FRONT RANGE...

CITY           SKY/WX    TMP DP  RH WIND       PRES   REMARKS
DENVER INTL AP CLOUDY    68  47  46 E6        29.98F
DMNS CITY PARK   N/A     73  37  27 NE9       29.97F
AURORA         PTSUNNY   70  44  40 SE13      30.00F
FRONT RANGE AP PTSUNNY   68  48  49 SE6       30.01F
ERIE MUNI ARPT PTSUNNY   72  41  32 CALM      29.96F
BOULDER MUN AP RAIN      70  43  37 SE5       29.97S
CENTENNIAL     PTSUNNY   64  46  52 SE14      30.01S
BROOMFIELD     PTSUNNY   72  41  33 CALM      29.99F
FORT COLLINS   PTSUNNY   75  45  33 E8        29.96F
LONGMONT       PTSUNNY   73  45  35 NE6       29.98F
$$

COZ041-046-047-076>085-087-088-282300-
...PIKES PEAK/PALMER DIVIDE AND SOUTHERN FOOTHILLS...

CITY           SKY/WX    TMP DP  RH WIND       PRES   REMARKS
COLO. SPRINGS  PTSUNNY   74  36  25 W9        30.01F
A. F. ACADEMY  PTSUNNY   65  41  42 NW9       30.03S
ELLICOTT       PTSUNNY  N/A N/A N/A N7        29.99F THUNDER
FALCON         PTSUNNY   67  33  28 NW56G104  30.06S
FORT CARSON    PTSUNNY   70  37  30 SW22G32   29.98F
LIMON          CLOUDY    61  46  57 N10       29.98S
MONUMENT HILL  CLOUDY    55  46  71 W13       30.08F
TRINIDAD       PTSUNNY   76  40  27 N6        29.97F
$$

COZ042>045-048>051-090-091-282300-
...NORTHEAST COLORADO...

CITY           SKY/WX    TMP DP  RH WIND       PRES   REMARKS
GREELEY ARPT   PTSUNNY   73  43  33 N9        29.96S
AKRON          TSTM      54  49  83 N31G40    29.99R
BURLINGTON     CLOUDY    65  58  78 SE23G31   29.92F THUNDER
WRAY           MOSUNNY   74  58  56 SE14      29.88F
STERLING       CLOUDY    55  50  82 NE18G24   29.94F
HOLYOKE        MOSUNNY   73  55  53 E5        29.92F
FORT MORGAN    CLOUDY    58  49  72 N16       29.96F
$$

COZ086-089-092>099-282300-
...SOUTHEAST COLORADO...

CITY           SKY/WX    TMP DP  RH WIND       PRES   REMARKS
PUEBLO         TSTM      65  47  52 W24G33    29.94R
LA JUNTA       CLOUDY    80  49  33 S12       29.86F
LAMAR          PTSUNNY   80  42  25 SW15      29.84F
SPRINGFIELD      N/A     69  49  48 W14       29.89F
$$


USA.gov is the U.S. government's official web portal to all federal, state and local government web resources and services.